Vertical_Velocity
-0 2 -1 -1 -2 1 -1 0 -3 -3 -1 -3 2 -0 0 -1 -2 2 -0 2 -4 -2 -0 -3 -1 1 -1 1 -2 -1 -3 -1 -1 -2 0 3 1 -2 -3 -3 2 -1 -0 0 2 0 -8 -5 -3 -3 -3 -1 2 -0
-2 0 2 -2 -2 -0 5 -0 -1 1 3 -5 -4 -3 -0 1 -5 -3 1 0 1 -1 0 -1 -2 -1 0 -0 -1 -1 -3 1 0 -2 -3 -4 -2 3 3 -6 -2 -4 -3 -1 -3 -3 -0 -2 1 -3 -3 -3 -6 -1
-1 -4 2 -0 0 1 4 2 -2 -0 0 6 0 -0 1 -2 2 -3 -2 3 1 1 1 -1 1 -3 -1 -1 -0 0 2 0 2 3 -1 1 -3 1 -1 -3 3 -4 4 -7 1 4 5 7 3 2 1 -0 -5 -2
-2 -2 2 -0 -1 3 4 -4 4 4 -0 2 3 -0 -2 -2 2 5 -0 -4 -6 -2 -0 1 -1 1 -1 2 2 -0 2 1 2 0 3 -2 0 -0 -2 2 -3 8 4 1 -11 1 -0 5 3 4 2 4 -1 -2
-0 -2 1 2 4 2 5 -0 7 -3 0 1 -3 -1 1 -0 -0 -4 -1 3 2 -3 -4 -2 -2 1 -1 -1 0 0 0 0 2 -0 -2 -2 -4 3 2 -3 2 8 7 2 -7 -2 -0 -0 -1 0 4 4 5 1
-0 0 -1 -1 5 -0 6 -0 6 3 2 2 4 3 -2 -5 -6 -2 -1 -0 4 -2 -3 -6 -4 3 1 0 0 -1 0 -1 0 3 2 -3 5 -1 -1 -12 14 2 2 5 2 1 -4 -3 1 0 -2 2 3 5
-0 -1 1 -3 6 2 6 -0 1 7 7 8 6 2 0 1 -1 3 -2 -0 2 2 -8 -7 -7 2 2 -1 1 -0 -1 -1 0 0 -2 -2 4 4 -9 -15 8 0 1 1 -1 -3 3 7 -5 -1 3 -2 -3 3
-2 1 1 1 -1 5 10 3 4 5 7 9 4 2 6 2 -1 -3 -0 -3 -3 2 -4 -6 -5 -6 2 1 3 3 0 2 -2 1 -3 0 0 2 -26 7 1 -1 -5 2 4 -1 0 2 2 0 -3 4 1 -1
3 -5 2 0 -1 1 11 9 7 9 10 7 5 3 3 -4 -5 0 4 4 0 4 3 -8 -1 -4 -3 1 3 2 0 1 -4 -5 5 -2 1 -21 8 4 5 2 -1 -5 1 2 1 -1 1 2 3 -2 -3 3
1 3 -1 3 4 -0 10 16 15 10 9 12 10 6 2 -6 8 6 1 6 -3 -5 -13 -16 5 5 10 2 -0 1 -1 -3 -1 -5 1 -6 -19 4 -5 -5 -4 -2 -3 -2 -4 6 1 -0 -4 -1 -5 1 -1 1
-1 2 4 6 4 3 10 19 18 17 2 1 1 5 1 2 6 7 4 5 -2 -7 -6 -7 5 -2 2 -1 3 -1 1 -0 -1 -2 -1 -2 -14 -3 -4 0 1 -1 -1 -4 -2 -2 -3 -0 -3 -3 2 -4 -0 2
-5 2 2 5 9 8 8 16 16 8 1 14 16 20 16 5 1 0 4 -0 -2 -7 -8 -11 3 4 2 3 -0 1 -4 -4 -2 1 -5 -5 -5 -4 -2 -3 -1 -4 -6 -3 -4 0 -3 -3 0 -3 -5 2 -4 5
-1 1 -1 2 3 13 13 14 8 12 15 19 21 18 8 -5 1 0 -7 -10 -9 -12 -8 2 1 -1 -0 6 1 0 -0 0 1 -1 -7 -11 -5 -1 -1 -1 -6 -6 -3 -0 -0 -2 -1 -2 -3 -2 -1 -1 0 0
1 4 -7 -0 6 6 14 24 9 -9 37 32 14 7 -15 -4 1 -23 -13 6 -3 -3 6 3 -4 -3 -3 -2 4 4 6 -3 -0 -4 -18 -3 -1 -3 -1 2 2 -1 0 -2 -1 -0 1 -4 -3 -2 -5 -1 -2 2
2 -0 2 -7 8 5 15 31 0 12 23 20 6 -4 -21 -1 -11 -1 -3 1 3 -2 3 5 3 1 3 0 -3 1 -1 -1 -5 -19 -3 -6 -5 -3 -3 -3 -1 -0 -3 0 -1 -1 -5 -2 -10 -7 -4 -1 0 -0
2 -12 -4 11 10 8 15 33 15 30 27 11 -10 -32 -7 11 7 -0 1 -2 6 0 -2 3 3 -1 -1 2 1 -5 6 -11 -22 -3 -4 -4 -3 -6 -2 -4 -6 -1 1 -3 -3 -7 1 -5 -0 -8 -2 -4 4 -0
-15 -22 17 4 14 15 24 53 14 -0 27 3 -55 5 -3 12 13 7 4 8 9 2 -9 1 -4 -11 -2 -3 -8 -10 -53 -1 3 -6 2 1 2 0 1 1 1 -2 -3 -4 -9 -6 -8 1 0 3 -6 -0 -0 6
-5 -2 2 13 7 10 40 11 49 23 -5 -40 -23 -11 5 -2 17 5 -2 4 -3 -2 0 2 3 -11 -12 -13 -17 -18 -4 13 4 1 1 1 1 0 1 -1 -4 -5 -4 -5 -4 -5 -3 -3 -5 2 -4 -2 -1 2
0 15 -7 6 16 24 23 22 12 0 -19 -12 -6 1 8 -3 0 12 11 12 2 8 10 3 -4 -12 -17 -27 -4 -1 -4 -0 7 8 7 5 -0 7 2 -2 1 -4 -1 -0 -6 -2 -8 -2 -3 -2 -1 -2 -4 -3
-4 -8 8 10 29 28 44 25 -2 5 -15 -13 1 1 8 -2 18 5 9 6 6 11 -4 -33 -29 -19 -1 12 -0 1 -8 4 4 3 3 7 3 -1 2 -2 -9 1 -2 -3 -4 -7 -3 -4 3 -0 -4 1 -5 1
-5 7 9 14 20 18 35 9 1 -23 -10 -3 -4 11 -7 8 0 -7 5 15 4 -38 -32 -8 -5 0 -4 0 4 3 -2 3 5 3 -5 0 1 -4 -2 -7 5 1 -8 -6 -0 4 -0 -0 6 -2 -7 -3 2 1
4 2 -11 17 11 19 42 13 10 -3 15 -20 13 4 -6 -3 -2 -5 18 7 -32 -15 3 2 -13 4 -1 -10 3 4 6 1 -7 -4 3 3 -10 -5 -2 4 1 -4 -5 1 6 -6 0 4 3 -0 -1 2 0 3
7 4 -3 10 15 33 11 14 10 -1 -1 -5 20 9 -12 -5 1 13 2 -22 -25 6 5 -7 4 -5 -13 4 1 8 4 -5 -6 -5 2 2 -6 -4 -4 -5 -0 -0 -6 5 7 -4 -0 7 0 0 3 -4 3 3
11 4 2 6 14 17 6 8 5 -2 -5 -1 4 10 5 5 5 1 -32 -13 -2 9 -5 -5 2 -19 9 1 -10 -3 6 2 -9 -5 3 -4 -12 1 1 -3 -1 1 6 1 -4 3 4 5 5 -2 5 -1 5 3
14 -2 3 1 16 10 -3 -5 -3 4 -4 -6 4 3 1 12 2 -8 -26 -5 1 -8 -5 -3 -11 2 -3 2 -1 -2 6 -5 -6 -10 14 -2 -5 -3 -5 -3 -3 3 4 -6 -2 -0 3 4 2 -0 1 0 5 1
10 -3 -3 -4 -4 -4 -6 -1 -0 -6 2 1 4 4 9 2 4 -29 -6 1 -1 -3 -5 -5 5 -4 -8 -4 0 0 5 3 -5 -19 16 4 1 -8 -3 -5 -5 -1 10 -0 -4 -2 -1 1 1 0 -1 4 4 2
-5 7 12 -5 3 -4 -4 -2 7 8 -0 -5 -10 -1 1 -6 -12 -20 -4 -14 -4 8 2 -2 3 2 -5 2 3 1 2 -0 -5 -4 4 -1 -3 -3 -4 -7 -9 12 1 3 -0 2 3 2 1 3 0 4 2 3
-13 15 1 -3 5 4 -0 5 -4 -8 -8 -6 7 -3 -12 -12 -17 -9 1 16 -7 -17 -5 4 3 3 7 -1 -6 -5 -3 -2 -2 -2 -9 -3 3 1 -2 -5 -2 -2 -2 3 0 -1 1 3 3 4 1 3 -2 4
-7 1 12 9 11 2 2 1 1 1 -8 -0 -4 -9 -17 -12 9 20 7 -6 -1 -7 0 7 2 -4 -5 -1 -3 0 3 1 -6 -7 -4 -3 4 8 -11 -2 -1 -2 -0 1 1 0 1 3 3 4 4 5 5 2
-8 5 8 3 2 2 -1 -4 -7 -3 -2 1 3 -1 5 3 -0 -3 -4 -3 -2 8 4 -3 -2 0 3 -3 1 -2 -8 -9 -2 -2 -7 1 3 6 4 -2 -4 0 2 -0 -0 3 1 -0 2 2 1 1 -2 0
8 7 8 6 6 2 -1 -6 -7 -2 1 5 11 5 1 0 4 -1 -3 1 5 3 0 1 3 -0 -2 -6 -13 -10 -0 6 -5 -1 -1 1 3 5 3 1 -2 -2 -0 -2 -0 1 -1 -0 2 1 0 1 1 0
8 10 3 1 -3 -5 4 5 8 8 8 1 -2 -1 -2 -6 -10 -4 5 10 5 -1 -1 -1 -1 -5 -13 -5 -2 2 -4 2 3 1 -1 3 6 3 0 3 -1 1 -1 -2 -2 -1 2 6 2 -1 2 3 3 4
5 3 1 5 5 2 3 3 2 2 2 -1 -7 -4 -0 -1 -2 -2 4 4 4 2 -2 -3 -6 -6 -1 -1 0 -5 -7 -0 1 1 3 1 1 2 1 -0 0 2 -1 -2 -1 6 5 1 -1 2 6 6 4 2
Height
3126 3125 3125 3124 3122 3120 3119 3115 3113 3110 3109 3107 3106 3104 3102 3100 3098 3095 3092 3089 3088 3085 3083 3082 3080 3079 3078 3076 3075 3076 3074 3072 3070 3069 3070 3067 3062 3061 3058 3056 3053 3053 3051 3047 3045 3045 3040 3037 3037 3037 3037 3033 3031 3029
3116 3116 3116 3116 3115 3113 3112 3111 3108 3106 3105 3104 3102 3101 3098 3097 3095 3092 3089 3087 3084 3083 3082 3078 3077 3075 3075 3074 3072 3072 3071 3069 3069 3069 3068 3066 3063 3059 3054 3052 3050 3048 3046 3045 3042 3035 3032 3032 3032 3030 3030 3029 3029 3028
3106 3106 3106 3106 3107 3104 3105 3104 3103 3100 3098 3097 3096 3094 3093 3091 3090 3088 3085 3083 3082 3080 3079 3076 3073 3073 3071 3069 3068 3068 3067 3065 3065 3064 3063 3062 3060 3056 3053 3048 3046 3045 3044 3038 3037 3031 3029 3028 3027 3026 3025 3025 3025 3024
3093 3095 3094 3095 3097 3096 3096 3097 3096 3095 3092 3092 3091 3089 3087 3085 3084 3082 3081 3079 3078 3077 3073 3073 3071 3069 3067 3065 3063 3061 3061 3060 3059 3059 3058 3056 3055 3052 3046 3044 3040 3040 3037 3033 3028 3027 3025 3023 3021 3021 3021 3020 3020 3020
3080 3082 3082 3084 3086 3086 3087 3088 3088 3088 3086 3086 3085 3084 3082 3080 3078 3077 3075 3074 3073 3075 3070 3069 3067 3065 3061 3060 3058 3057 3057 3056 3054 3053 3051 3051 3049 3047 3041 3035 3030 3031 3029 3026 3022 3023 3021 3020 3019 3018 3017 3017 3016 3015
3068 3069 3070 3072 3075 3076 3077 3079 3079 3079 3080 3080 3079 3078 3077 3076 3075 3073 3070 3068 3067 3068 3065 3062 3060 3056 3054 3054 3053 3053 3052 3051 3050 3048 3047 3044 3044 3044 3036 3027 3029 3027 3023 3020 3019 3018 3016 3014 3015 3014 3013 3013 3012 3012
3056 3056 3059 3062 3063 3066 3068 3069 3070 3070 3070 3071 3071 3071 3070 3069 3068 3069 3068 3065 3061 3061 3062 3056 3052 3048 3047 3048 3048 3049 3048 3048 3046 3044 3040 3040 3039 3038 3030 3023 3024 3021 3020 3018 3014 3010 3009 3011 3008 3007 3007 3007 3007 3007
3045 3047 3050 3052 3054 3055 3057 3059 3060 3060 3061 3062 3061 3062 3062 3061 3060 3060 3061 3060 3058 3055 3055 3054 3049 3047 3046 3043 3043 3042 3041 3041 3040 3037 3033 3033 3032 3028 3021 3020 3019 3017 3015 3013 3010 3008 3005 3004 3005 3004 3003 3002 3000 3002
3034 3037 3039 3042 3044 3045 3047 3048 3049 3050 3051 3051 3052 3053 3052 3051 3051 3054 3054 3052 3052 3054 3047 3043 3043 3043 3039 3037 3036 3036 3035 3034 3033 3031 3028 3027 3020 3015 3016 3014 3012 3010 3007 3004 3003 3002 3001 3000 3000 2999 2997 2996 2995 2995
3022 3025 3028 3030 3033 3035 3036 3037 3037 3038 3039 3041 3040 3042 3041 3040 3044 3045 3043 3041 3039 3039 3033 3030 3033 3033 3036 3034 3032 3033 3029 3029 3024 3024 3021 3014 3003 3010 3007 3005 3005 3005 3003 3001 2999 2998 2996 2994 2993 2991 2989 2988 2987 2989
3007 3012 3016 3018 3021 3023 3025 3026 3025 3025 3025 3026 3027 3030 3031 3032 3035 3035 3032 3026 3026 3022 3019 3019 3020 3021 3021 3025 3026 3028 3024 3023 3020 3018 3017 3004 2994 3001 3000 2999 2998 2998 2997 2994 2992 2990 2989 2986 2984 2984 2983 2980 2980 2980
2991 2996 3002 3006 3008 3010 3012 3014 3012 3011 3012 3015 3017 3018 3021 3025 3028 3027 3014 3013 3008 3011 3006 3010 3013 3013 3012 3013 3017 3017 3017 3016 3012 3009 3007 2994 2994 2993 2994 2994 2993 2991 2989 2988 2985 2984 2981 2979 2977 2975 2975 2973 2971 2972
2973 2978 2985 2990 2994 2997 2998 2999 2998 2999 3000 3003 3006 3009 3015 3015 3008 2997 2990 2985 2986 2993 2997 3000 3003 3006 3006 3009 3010 3011 3007 3007 3004 3000 2990 2985 2988 2987 2987 2986 2985 2984 2982 2980 2978 2976 2974 2973 2970 2967 2965 2964 2962 2961
2956 2961 2966 2973 2977 2982 2984 2984 2981 2983 2991 2989 2990 2992 2994 2983 2968 2964 2969 2978 2985 2987 2991 2991 2995 3000 3000 3003 3005 3002 2998 2997 2992 2985 2973 2979 2980 2980 2979 2978 2977 2977 2974 2971 2969 2967 2966 2964 2963 2960 2957 2954 2952 2952
2942 2945 2950 2955 2961 2966 2970 2968 2965 2969 2970 2971 2971 2966 2953 2953 2957 2961 2966 2971 2976 2980 2985 2985 2987 2990 2993 2994 2994 2992 2988 2979 2973 2967 2970 2971 2972 2973 2972 2970 2969 2965 2964 2962 2960 2958 2956 2954 2952 2951 2949 2946 2944 2943
2928 2928 2934 2940 2947 2952 2957 2953 2949 2951 2948 2950 2949 2947 2942 2941 2941 2951 2958 2963 2969 2971 2974 2977 2977 2979 2982 2982 2974 2970 2967 2960 2962 2964 2963 2964 2963 2962 2962 2960 2958 2956 2953 2952 2950 2950 2948 2945 2943 2941 2939 2937 2936 2933
2913 2917 2923 2926 2933 2938 2943 2932 2928 2928 2931 2925 2927 2932 2934 2939 2938 2946 2952 2956 2959 2959 2960 2965 2962 2964 2965 2961 2952 2947 2947 2953 2956 2957 2957 2955 2954 2953 2952 2949 2947 2946 2944 2941 2940 2938 2937 2935 2934 2931 2929 2927 2926 2924
2903 2907 2908 2914 2919 2923 2921 2911 2912 2906 2905 2909 2908 2917 2920 2927 2934 2937 2941 2945 2945 2946 2948 2950 2951 2945 2937 2934 2931 2937 2946 2950 2949 2949 2948 2946 2944 2943 2941 2938 2937 2935 2933 2931 2928 2926 2925 2923 2922 2921 2919 2919 2916 2914
2893 2893 2895 2902 2906 2905 2901 2897 2894 2889 2891 2898 2899 2907 2909 2913 2921 2926 2933 2933 2933 2938 2940 2940 2937 2920 2914 2918 2929 2937 2940 2940 2940 2937 2935 2934 2933 2930 2928 2925 2923 2921 2920 2918 2916 2914 2914 2913 2912 2912 2909 2908 2907 2906
2878 2880 2884 2887 2888 2889 2886 2878 2877 2879 2881 2886 2888 2893 2897 2900 2908 2913 2917 2918 2921 2925 2923 2912 2903 2906 2910 2919 2924 2927 2926 2927 2924 2921 2920 2921 2920 2918 2914 2911 2909 2908 2906 2904 2903 2902 2903 2902 2902 2901 2899 2898 2897 2897
2864 2865 2869 2871 2870 2870 2869 2860 2861 2864 2871 2877 2880 2883 2886 2887 2889 2896 2900 2903 2902 2900 2895 2891 2898 2904 2908 2912 2913 2911 2910 2910 2908 2905 2903 2900 2902 2901 2899 2899 2898 2895 2893 2893 2891 2891 2890 2889 2890 2889 2888 2888 2887 2886
2850 2853 2852 2856 2853 2853 2850 2846 2849 2852 2856 2861 2867 2870 2871 2872 2876 2882 2885 2884 2878 2878 2877 2883 2889 2898 2898 2897 2899 2897 2894 2892 2892 2890 2888 2887 2885 2887 2888 2889 2886 2883 2881 2881 2879 2880 2879 2879 2878 2878 2877 2877 2876 2876
2841 2841 2842 2841 2840 2836 2834 2836 2836 2837 2844 2849 2851 2853 2855 2859 2862 2867 2867 2857 2859 2863 2869 2875 2882 2884 2881 2882 2881 2878 2879 2878 2876 2875 2876 2876 2875 2875 2875 2875 2873 2870 2870 2871 2869 2869 2868 2868 2867 2866 2867 2866 2865 2865
2832 2830 2829 2830 2825 2821 2819 2820 2824 2831 2833 2838 2840 2842 2838 2838 2842 2848 2845 2841 2846 2856 2859 2865 2869 2868 2866 2863 2862 2865 2866 2866 2864 2862 2863 2864 2864 2863 2861 2861 2860 2860 2859 2858 2856 2856 2856 2856 2856 2855 2856 2855 2855 2854
2819 2816 2815 2814 2809 2808 2809 2812 2815 2818 2820 2824 2830 2829 2825 2825 2828 2829 2826 2829 2839 2844 2850 2854 2853 2849 2848 2849 2851 2853 2856 2853 2851 2852 2854 2852 2851 2850 2851 2850 2850 2849 2848 2846 2845 2844 2844 2844 2844 2844 2845 2845 2845 2844
2804 2799 2798 2795 2797 2800 2798 2801 2802 2803 2807 2814 2819 2820 2819 2821 2818 2817 2816 2824 2831 2835 2838 2838 2838 2836 2836 2839 2841 2843 2844 2842 2841 2841 2843 2842 2842 2841 2840 2838 2838 2839 2838 2837 2835 2835 2835 2834 2834 2835 2835 2836 2834 2833
2788 2785 2780 2781 2783 2784 2786 2789 2792 2795 2797 2800 2803 2808 2813 2814 2811 2810 2813 2820 2821 2822 2824 2826 2826 2826 2829 2831 2830 2831 2832 2831 2830 2832 2832 2833 2832 2831 2831 2828 2827 2829 2827 2827 2825 2825 2825 2826 2825 2826 2826 2826 2825 2823
2772 2773 2771 2774 2774 2774 2776 2778 2781 2784 2788 2791 2796 2796 2801 2803 2805 2809 2812 2810 2811 2815 2819 2819 2818 2819 2820 2820 2821 2822 2824 2823 2823 2823 2823 2824 2823 2823 2822 2819 2817 2816 2816 2815 2814 2813 2814 2816 2817 2817 2816 2816 2816 2817
2758 2761 2764 2762 2764 2766 2768 2770 2773 2774 2777 2783 2786 2788 2791 2793 2799 2800 2799 2802 2807 2809 2810 2809 2808 2809 2810 2811 2812 2813 2814 2814 2815 2814 2813 2813 2815 2816 2813 2810 2808 2807 2806 2806 2805 2804 2805 2807 2808 2808 2808 2808 2809 2812
2743 2752 2753 2753 2755 2757 2759 2762 2765 2770 2773 2777 2779 2780 2782 2786 2789 2791 2795 2797 2799 2800 2799 2799 2800 2800 2801 2802 2804 2805 2806 2805 2804 2804 2803 2804 2804 2805 2804 2801 2799 2799 2798 2798 2797 2798 2798 2799 2800 2800 2801 2801 2805 2809
2737 2742 2746 2746 2748 2750 2754 2758 2762 2765 2767 2768 2770 2773 2777 2780 2783 2785 2787 2788 2789 2790 2791 2792 2792 2793 2793 2796 2797 2797 2797 2797 2795 2793 2792 2792 2792 2793 2793 2792 2791 2791 2791 2791 2791 2791 2792 2793 2793 2794 2796 2798 2802 2806
2731 2732 2736 2740 2744 2749 2751 2753 2756 2758 2760 2762 2765 2768 2771 2773 2775 2777 2780 2780 2781 2782 2782 2783 2784 2785 2786 2787 2787 2786 2786 2785 2782 2781 2781 2781 2782 2782 2782 2782 2782 2782 2784 2783 2785 2785 2786 2787 2788 2790 2793 2796 2800 2804
2726 2731 2734 2737 2741 2743 2747 2750 2751 2753 2755 2756 2759 2762 2764 2766 2767 2769 2771 2772 2773 2773 2774 2776 2777 2778 2778 2778 2777 2775 2772 2770 2769 2769 2769 2769 2769 2770 2771 2772 2773 2775 2777 2777 2778 2780 2781 2782 2784 2787 2791 2794 2798 2801